Location: Joplin
(37.0842°N, 94.5131°W)
Time: 02:46:33
(UTC-05:00)

Envisat - Pass Details

Date: 06 October 2021
Orbit: 764 x 766 km, 98.2° (Epoch: 25 October)

Event Time Altitude Azimuth Distance (km) Brightness Sun altitude
Rises 05:31:06 0° 26° (NNE) 3,235 6.8 -22.1°
Reaches altitude 10° 05:33:49 10° 40° (NE) 2,304 6.1 -21.5°
Maximum altitude 05:37:58 25° 95° (E) 1,500 5.3 -20.7°
Drops below altitude 10° 05:42:06 10° 150° (SSE) 2,291 5.7 -19.9°
Sets 05:44:46 0° 163° (SSE) 3,212 6.3 -19.4°
